Time,TemperatureF,DewpointF,PressureIn,WindDirection,WindDirectionDegrees,WindSpeedMPH,WindSpeedGustMPH,Humidity,HourlyPrecipIn,Conditions,Clouds,dailyrainin,SoftwareType,DateUTC
2013-09-09 00:10:00,55.4,43.0,31.79,NW,315,15.0,16.0,63,0.00,,,0.04,weatherlink.com 1.10,2013-09-09 06:10:00,
2013-09-09 00:25:00,55.2,43.0,31.79,NW,307,7.0,13.0,63,0.00,,,0.04,weatherlink.com 1.10,2013-09-09 06:25:00,
2013-09-09 00:40:00,55.3,43.0,31.80,NW,322,5.0,13.0,63,0.00,,,0.04,weatherlink.com 1.10,2013-09-09 06:40:00,
2013-09-09 00:55:00,55.1,43.0,31.80,North,5,4.0,9.0,63,0.00,,,0.00,weatherlink.com 1.10,2013-09-09 06:55:00,
2013-09-09 01:10:00,55.2,43.0,31.80,NNW,343,4.0,5.0,63,0.00,,,0.00,weatherlink.com 1.10,2013-09-09 07:10:00,
2013-09-09 01:25:00,55.1,43.0,31.80,North,351,0.0,3.0,63,0.00,,,0.00,weatherlink.com 1.10,2013-09-09 07:25:00,
2013-09-09 01:40:00,55.0,43.0,31.80,South,174,3.0,3.0,64,0.00,,,0.00,weatherlink.com 1.10,2013-09-09 07:40:00,
2013-09-09 01:55:00,54.5,43.0,31.80,SSE,157,2.0,2.0,65,0.00,,,0.00,weatherlink.com 1.10,2013-09-09 07:55:00,
2013-09-09 02:10:00,54.4,43.0,31.79,NE,51,3.0,3.0,65,0.00,,,0.00,weatherlink.com 1.10,2013-09-09 08:10:00,
2013-09-09 02:25:00,55.0,43.0,31.79,ENE,67,5.0,5.0,64,0.00,,,0.00,weatherlink.com 1.10,2013-09-09 08:25:00,
2013-09-09 02:40:00,54.8,43.0,31.79,ESE,116,4.0,7.0,64,0.00,,,0.00,weatherlink.com 1.10,2013-09-09 08:40:00,
2013-09-09 02:55:00,54.6,42.0,31.80,SSE,159,2.0,6.0,63,0.00,,,0.00,weatherlink.com 1.10,2013-09-09 08:55:00,
2013-09-09 03:10:00,54.3,43.0,31.80,SE,132,1.0,7.0,65,0.00,,,0.00,weatherlink.com 1.10,2013-09-09 09:10:00,
2013-09-09 03:25:00,54.2,43.0,31.80,ESE,103,3.0,5.0,65,0.00,,,0.00,weatherlink.com 1.10,2013-09-09 09:25:00,
2013-09-09 03:40:00,54.2,42.0,31.80,East,86,2.0,3.0,64,0.00,,,0.00,weatherlink.com 1.10,2013-09-09 09:40:00,
2013-09-09 03:55:00,54.4,42.0,31.80,East,90,1.0,5.0,64,0.00,,,0.00,weatherlink.com 1.10,2013-09-09 09:55:00,
2013-09-09 04:10:00,54.4,42.0,31.81,ESE,103,3.0,7.0,63,0.00,,,0.00,weatherlink.com 1.10,2013-09-09 10:10:00,
2013-09-09 04:25:00,54.4,42.0,31.81,SE,126,5.0,8.0,64,0.00,,,0.00,weatherlink.com 1.10,2013-09-09 10:25:00,
2013-09-09 04:40:00,54.2,42.0,31.81,ESE,103,4.0,6.0,64,0.00,,,0.00,weatherlink.com 1.10,2013-09-09 10:40:00,
2013-09-09 04:55:00,54.1,42.0,31.80,ESE,102,2.0,3.0,65,0.00,,,0.00,weatherlink.com 1.10,2013-09-09 10:55:00,
2013-09-09 05:10:00,54.4,42.0,31.81,East,98,5.0,8.0,64,0.00,,,0.00,weatherlink.com 1.10,2013-09-09 11:10:00,
2013-09-09 05:25:00,54.4,43.0,31.81,ENE,63,1.0,5.0,65,0.00,,,0.00,weatherlink.com 1.10,2013-09-09 11:25:00,
2013-09-09 05:40:00,54.5,43.0,31.81,ESE,111,2.0,5.0,65,0.00,,,0.00,weatherlink.com 1.10,2013-09-09 11:40:00,
2013-09-09 05:55:00,54.5,43.0,31.81,East,81,5.0,7.0,65,0.00,,,0.00,weatherlink.com 1.10,2013-09-09 11:55:00,
2013-09-09 06:10:00,54.4,43.0,31.82,East,88,6.0,9.0,66,0.00,,,0.00,weatherlink.com 1.10,2013-09-09 12:10:00,
2013-09-09 06:25:00,54.2,43.0,31.82,SSE,168,3.0,7.0,66,0.00,,,0.00,weatherlink.com 1.10,2013-09-09 12:25:00,
2013-09-09 06:40:00,54.1,43.0,31.83,SSE,160,3.0,5.0,67,0.00,,,0.00,weatherlink.com 1.10,2013-09-09 12:40:00,
2013-09-09 06:55:00,53.8,43.0,31.83,ESE,120,5.0,9.0,67,0.00,,,0.00,weatherlink.com 1.10,2013-09-09 12:55:00,
2013-09-09 07:10:00,53.3,43.0,31.84,East,98,7.0,7.0,69,0.00,,,0.00,weatherlink.com 1.10,2013-09-09 13:10:00,
2013-09-09 07:25:00,52.7,44.0,31.85,SE,126,6.0,12.0,71,0.00,,,0.00,weatherlink.com 1.10,2013-09-09 13:25:00,
2013-09-09 07:41:00,51.1,45.0,31.85,ESE,122,7.0,13.0,80,0.00,,,0.00,weatherlink.com 1.10,2013-09-09 13:41:00,
2013-09-09 07:56:00,51.1,45.0,31.85,ESE,117,11.0,12.0,81,0.00,,,0.00,weatherlink.com 1.10,2013-09-09 13:56:00,
2013-09-09 08:11:00,51.4,45.0,31.86,East,97,5.0,12.0,80,0.00,,,0.00,weatherlink.com 1.10,2013-09-09 14:11:00,
2013-09-09 08:26:00,51.4,46.0,31.86,East,83,6.0,11.0,81,0.00,,,0.00,weatherlink.com 1.10,2013-09-09 14:26:00,
2013-09-09 08:41:00,51.6,46.0,31.86,ENE,70,5.0,12.0,82,0.00,,,0.00,weatherlink.com 1.10,2013-09-09 14:41:00,
2013-09-09 08:56:00,52.3,47.0,31.87,ESE,105,2.0,9.0,81,0.00,,,0.00,weatherlink.com 1.10,2013-09-09 14:56:00,
2013-09-09 09:11:00,52.6,47.0,31.87,East,98,5.0,9.0,80,0.00,,,0.00,weatherlink.com 1.10,2013-09-09 15:11:00,
2013-09-09 09:26:00,53.2,47.0,31.87,ESE,118,0.0,5.0,80,0.00,,,0.00,weatherlink.com 1.10,2013-09-09 15:26:00,
2013-09-09 09:41:00,54.0,47.0,31.87,SE,132,1.0,5.0,78,0.00,,,0.00,weatherlink.com 1.10,2013-09-09 15:41:00,
2013-09-09 09:56:00,54.4,48.0,31.87,SE,146,0.0,5.0,78,0.00,,,0.00,weatherlink.com 1.10,2013-09-09 15:56:00,
2013-09-09 10:11:00,55.8,47.0,31.87,ESE,119,3.0,5.0,73,0.00,,,0.00,weatherlink.com 1.10,2013-09-09 16:11:00,
2013-09-09 10:26:00,55.8,48.0,31.87,ESE,120,4.0,7.0,74,0.00,,,0.00,weatherlink.com 1.10,2013-09-09 16:26:00,
2013-09-09 10:41:00,56.9,48.0,31.86,ESE,121,4.0,8.0,72,0.00,,,0.00,weatherlink.com 1.10,2013-09-09 16:41:00,
2013-09-09 10:56:00,57.6,48.0,31.86,SE,146,1.0,5.0,70,0.00,,,0.00,weatherlink.com 1.10,2013-09-09 16:56:00,
2013-09-09 11:11:00,57.6,48.0,31.86,SSE,159,1.0,8.0,70,0.00,,,0.00,weatherlink.com 1.10,2013-09-09 17:11:00,
2013-09-09 11:26:00,58.6,48.0,31.86,SE,140,5.0,8.0,69,0.00,,,0.00,weatherlink.com 1.10,2013-09-09 17:26:00,
2013-09-09 11:41:00,59.9,48.0,31.86,SSE,161,7.0,12.0,66,0.00,,,0.00,weatherlink.com 1.10,2013-09-09 17:41:00,
2013-09-09 11:56:00,60.7,50.0,31.85,SE,129,5.0,7.0,68,0.00,,,0.00,weatherlink.com 1.10,2013-09-09 17:56:00,
2013-09-09 12:11:00,62.1,50.0,31.84,SSW,194,5.0,13.0,64,0.00,,,0.00,weatherlink.com 1.10,2013-09-09 18:11:00,
2013-09-09 12:26:00,63.5,49.0,31.85,South,173,2.0,11.0,59,0.00,,,0.00,weatherlink.com 1.10,2013-09-09 18:26:00,
2013-09-09 12:41:00,61.9,49.0,31.84,SSW,193,5.0,11.0,64,0.00,,,0.00,weatherlink.com 1.10,2013-09-09 18:41:00,
2013-09-09 12:56:00,63.5,50.0,31.83,SSE,148,12.0,13.0,62,0.00,,,0.00,weatherlink.com 1.10,2013-09-09 18:56:00,
2013-09-09 13:11:00,64.1,49.0,31.83,SSE,164,7.0,11.0,59,0.00,,,0.00,weatherlink.com 1.10,2013-09-09 19:11:00,
2013-09-09 13:26:00,64.3,49.0,31.82,SSE,150,10.0,13.0,58,0.00,,,0.00,weatherlink.com 1.10,2013-09-09 19:26:00,
2013-09-09 13:41:00,64.9,49.0,31.81,SSE,149,6.0,11.0,56,0.00,,,0.00,weatherlink.com 1.10,2013-09-09 19:41:00,
2013-09-09 13:56:00,65.2,48.0,31.80,SSE,161,7.0,11.0,54,0.00,,,0.00,weatherlink.com 1.10,2013-09-09 19:56:00,
2013-09-09 14:11:00,67.0,48.0,31.80,WSW,242,5.0,10.0,51,0.00,,,0.00,weatherlink.com 1.10,2013-09-09 20:11:00,
2013-09-09 14:27:00,67.6,49.0,31.79,WSW,241,6.0,12.0,51,0.00,,,0.00,weatherlink.com 1.10,2013-09-09 20:27:00,
2013-09-09 14:42:00,66.4,48.0,31.79,SSW,206,6.0,12.0,52,0.00,,,0.00,weatherlink.com 1.10,2013-09-09 20:42:00,
2013-09-09 14:57:00,67.7,47.0,31.78,SW,227,7.0,14.0,48,0.00,,,0.00,weatherlink.com 1.10,2013-09-09 20:57:00,
2013-09-09 15:27:00,67.6,48.0,31.77,WSW,247,4.0,13.0,49,0.00,,,0.00,weatherlink.com 1.10,2013-09-09 21:27:00,
2013-09-09 15:42:00,68.6,48.0,31.77,SSW,193,11.0,12.0,48,0.00,,,0.00,weatherlink.com 1.10,2013-09-09 21:42:00,
2013-09-09 15:57:00,68.0,47.0,31.77,West,267,3.0,14.0,48,0.00,,,0.00,weatherlink.com 1.10,2013-09-09 21:57:00,
2013-09-09 16:12:00,70.2,47.0,31.76,SW,225,6.0,13.0,44,0.00,,,0.00,weatherlink.com 1.10,2013-09-09 22:12:00,
2013-09-09 16:27:00,70.2,48.0,31.76,WSW,250,12.0,14.0,45,0.00,,,0.00,weatherlink.com 1.10,2013-09-09 22:27:00,
2013-09-09 16:42:00,70.1,47.0,31.76,South,172,4.0,14.0,44,0.00,,,0.00,weatherlink.com 1.10,2013-09-09 22:42:00,
2013-09-09 16:57:00,69.1,47.0,31.76,SW,232,7.0,19.0,45,0.00,,,0.00,weatherlink.com 1.10,2013-09-09 22:57:00,
2013-09-09 17:12:00,69.8,47.0,31.76,West,265,11.0,15.0,45,0.00,,,0.00,weatherlink.com 1.10,2013-09-09 23:12:00,
2013-09-09 17:27:00,69.6,47.0,31.75,WNW,289,9.0,13.0,45,0.00,,,0.00,weatherlink.com 1.10,2013-09-09 23:27:00,
2013-09-09 17:42:00,69.2,48.0,31.75,SW,232,6.0,13.0,47,0.00,,,0.00,weatherlink.com 1.10,2013-09-09 23:42:00,
2013-09-09 17:57:00,69.4,47.0,31.75,WSW,251,9.0,12.0,45,0.00,,,0.00,weatherlink.com 1.10,2013-09-09 23:57:00,
2013-09-09 18:12:00,69.4,46.0,31.75,West,271,11.0,11.0,44,0.00,,,0.00,weatherlink.com 1.10,2013-09-10 00:12:00,
2013-09-09 18:27:00,69.6,47.0,31.75,SSW,213,4.0,11.0,45,0.00,,,0.00,weatherlink.com 1.10,2013-09-10 00:27:00,
2013-09-09 18:42:00,69.0,47.0,31.75,WSW,241,7.0,9.0,45,0.00,,,0.00,weatherlink.com 1.10,2013-09-10 00:42:00,
2013-09-09 18:57:00,68.7,47.0,31.74,SW,219,4.0,8.0,46,0.00,,,0.00,weatherlink.com 1.10,2013-09-10 00:57:00,
2013-09-09 19:12:00,67.6,47.0,31.74,WSW,237,2.0,6.0,48,0.00,,,0.00,weatherlink.com 1.10,2013-09-10 01:12:00,
2013-09-09 19:27:00,67.2,48.0,31.74,SSW,211,1.0,5.0,50,0.00,,,0.00,weatherlink.com 1.10,2013-09-10 01:27:00,
2013-09-09 19:42:00,66.5,48.0,31.74,South,173,0.0,2.0,51,0.00,,,0.00,weatherlink.com 1.10,2013-09-10 01:42:00,
2013-09-09 19:57:00,65.3,47.0,31.75,South,171,0.0,1.0,52,0.00,,,0.00,weatherlink.com 1.10,2013-09-10 01:57:00,
2013-09-09 20:12:00,64.4,47.0,31.75,East,94,3.0,5.0,53,0.00,,,0.00,weatherlink.com 1.10,2013-09-10 02:12:00,
2013-09-09 20:27:00,64.1,47.0,31.75,East,97,3.0,5.0,54,0.00,,,0.00,weatherlink.com 1.10,2013-09-10 02:27:00,
2013-09-09 20:42:00,64.1,47.0,31.75,ESE,113,1.0,5.0,54,0.00,,,0.00,weatherlink.com 1.10,2013-09-10 02:42:00,
2013-09-09 20:57:00,64.1,46.0,31.76,East,84,5.0,5.0,53,0.00,,,0.00,weatherlink.com 1.10,2013-09-10 02:57:00,
2013-09-09 21:12:00,64.4,47.0,31.76,East,82,1.0,3.0,53,0.00,,,0.00,weatherlink.com 1.10,2013-09-10 03:12:00,
2013-09-09 21:27:00,64.6,46.0,31.76,East,82,0.0,1.0,52,0.00,,,0.00,weatherlink.com 1.10,2013-09-10 03:27:00,
2013-09-09 21:42:00,64.5,46.0,31.77,East,82,0.0,1.0,52,0.00,,,0.00,weatherlink.com 1.10,2013-09-10 03:42:00,
2013-09-09 21:57:00,64.5,46.0,31.77,East,82,0.0,1.0,52,0.00,,,0.00,weatherlink.com 1.10,2013-09-10 03:57:00,
2013-09-09 22:12:00,64.0,46.0,31.77,East,82,0.0,1.0,53,0.00,,,0.00,weatherlink.com 1.10,2013-09-10 04:12:00,
2013-09-09 22:27:00,63.4,46.0,31.77,NNW,344,7.0,7.0,54,0.00,,,0.00,weatherlink.com 1.10,2013-09-10 04:27:00,
2013-09-09 22:42:00,63.7,47.0,31.77,NNW,342,6.0,8.0,54,0.00,,,0.00,weatherlink.com 1.10,2013-09-10 04:42:00,
2013-09-09 22:57:00,64.3,47.0,31.77,NNW,343,7.0,8.0,53,0.00,,,0.00,weatherlink.com 1.10,2013-09-10 04:57:00,
2013-09-09 23:12:00,63.7,47.0,31.78,NNW,342,6.0,10.0,54,0.00,,,0.00,weatherlink.com 1.10,2013-09-10 05:12:00,
2013-09-09 23:27:00,64.0,46.0,31.78,NNW,343,4.0,8.0,53,0.00,,,0.00,weatherlink.com 1.10,2013-09-10 05:27:00,
2013-09-09 23:42:00,63.8,46.0,31.79,NW,324,7.0,7.0,53,0.00,,,0.00,weatherlink.com 1.10,2013-09-10 05:42:00,
2013-09-09 23:57:00,63.8,46.0,31.79,NNW,337,6.0,8.0,53,0.00,,,0.00,weatherlink.com 1.10,2013-09-10 05:57:00,